Location: Endfield
(51.6667°N, 0.0667°W)
Time: 13:19:04
(UTC+00:00)

ATLAS 2AS CENTAUR R/B - Pass Details

Date: 19 May 2024
Orbit: 1036 x 1174 km, 63.7° (Epoch: 28 April)

Event Time Altitude Azimuth Distance (km) Brightness Sun altitude
Rises 22:07:19 0° 257° (WSW) 3,999 5.9 -14.4°
Reaches altitude 10° 22:10:14 10° 264° (W) 3,022 5.3 -14.6°
Maximum altitude 22:17:01 42° 334° (NNW) 1,529 4.1 -15.1°
Drops below altitude 10° 22:23:36 10° 45° (NE) 2,933 5.3 -15.5°
Sets 22:26:24 0° 52° (NE) 3,871 5.8 -15.6°
